Location: Unspecified
(50.0830°N, 0.0000°E)
Time: 20:36:51
(UTC+00:00)

Envisat - Pass Details

Date: 23 November 2019
Orbit: 764 x 766 km, 98.1° (Epoch: 05 December)

Event Time Altitude Azimuth Distance (km) Brightness Sun altitude
Rises 05:10:31 0° 33° (NNE) 3,243 6.6 -21.1°
Maximum altitude 05:16:05 10° 83° (E) 2,308 6.6 -20.2°
Drops below altitude 10° 05:16:08 10° 83° (E) 2,308 6.6 -20.2°
Sets 05:21:37 0° 132° (SE) 3,222 7.2 -19.3°
